STARLINK-1378 (45548 NORAD) Tracking and Keplerian Element Data

This shows tracking and keplerian element data for the satellite.

Feedback or suggestion? Click here.




ElementValue
Catalog45548
NameSTARLINK-1378
Epoch Orbit175
Epoch Day196.91667824
Epoch Year2020
RAAN11.2574
Inclination53.0008
Eccentricity0.0001588
Argument of Perigee93.4512
Mean Anonmoly196.3315
Mean Motion15.0557269
Decay Rate0.00039254
L11 45548U 20025T 20196.91667824 .00039254 00000-0 26988-2 0 9994
L22 45548 53.0008 11.2574 0001588 93.4512 196.3315 15.05572690 1751

Live tracking and technical data element details for STARLINK-1378 (NORAD 45548). STARLINK-1378 can be tracked NOW for your location showing map with azimuth and elevation plus other details from your city location.

Track the satellite on the map from your city or location and see movement details for azimuth, elevation, latitude, longitude, range, height, and movement on the map or in text.







IsCatalogInMostPopularTable: catalog: 45548, numindb: 14
Update: records affected: 1



GetName: 45548 STARLINK-1378

Hit Count: updated at: Thu, 16 Jul 2020 02:29:19 GMT